User: anonymous   Login
Location: Unspecified
(0.0000°N, 0.0000°E)
Time: 04:41:58
(UTC+00:00)
Language:

SBIRS GEO 1 (USA 230) - Orbit

View from above orbital plane
View from above orbital plane
View from above satellite
View from above satellite

Ground track
Ground track

The orbit data is extracted from the following two-line orbital elements,

1 37481U 11019A   16029.27413606 0.00000000  00000-0  00000-0 0    05
2 37481   4.3200 320.6740 0003169 325.0329  34.9489  1.00270000    06
Epoch (UTC): 29 January 2016 06:34:45
Eccentricity: 0.0003169
inclination: 4.3200°
perigee height: 35773 km
apogee height: 35800 km
right ascension of ascending node: 320.6740°
argument of perigee: 325.0329°
revolutions per day: 1.00270000
mean anomaly at epoch: 34.9489°
orbit number at epoch: 0

The dashed part of the orbit path shows where the satellite is in the earth's shadow,  

DLR